{"data":{"norad_id":54850,"epoch":"2026-09-20T06:45:53.955936Z","epoch_age_seconds":112158,"freshness":"FRESH","line1":"1 54850U 22177AG  26263.28187449  .00001152  00000+0  51382-4 0  9994","line2":"2 54850  43.0040 102.4026 0001479 266.9982  93.0700 15.27574708206859","mean_motion":15.27574708,"eccentricity":0.0001479,"inclination_deg":43.004,"raan_deg":102.4026,"arg_perigee_deg":266.9982,"mean_anomaly_deg":93.07,"bstar":5.1382e-5,"rev_number":20685,"period_min":94.267075283365,"perigee_km":482.05017046993,"apogee_km":484.07971400444,"semimajor_km":6861.2019422372,"source":"CELESTRAK","updated_at":"2026-09-21T09:00:33.138061Z"}}